Weather History for KC29 - November, 2012

Change the Weather History Date:

Monday, November 12, 2012

  Actual Average (KMSN) Record (KMSN)
Temperature  
Mean Temperature 28 °F 38 °F  
Max Temperature 32 °F 46 °F 64 °F (1964)
Min Temperature 25 °F 30 °F 7 °F (1986)
Degree Days  
Heating Degree Days 36 27  
Month to date heating degree days 293  
Since 1 July heating degree days 1006  
Cooling Degree Days 0 0  
Month to date cooling degree days 0  
Year to date cooling degree days 568  
Moisture  
Dew Point 18 °F    
Average Humidity 66    
Maximum Humidity 85    
Minimum Humidity 58    
Precipitation  
Precipitation 0.06 in 0.08 in 1.21 in (1879)
Month to date precipitation 0.96  
Year to date precipitation 31.31  
Snow  
Snow 0.00 in 0.00 in 2.00 in (1916)
Month to date snowfall 0.6  
Since 1 July snowfall 1.1  
Since 1 September snowfall 1.1  
Snow Depth -    
Sea Level Pressure  
Sea Level Pressure 30.09 in    
Wind  
Wind Speed 14 mph (West)    
Max Wind Speed 23 mph    
Max Gust Speed 30 mph    
Visibility 10 miles    
Events      
T = Trace of Precipitation, MM = Missing Value Source: NWS Daily Summary

Daily Weather History Graph

Daily Weather History Graph

Search for Another Location

Airport or City:

Trip Planner

Search our weather history database for the weather conditions in past years. The results will help you decide how hot, cold, wet, or windy it might be!

Date:

Astronomy

Nov. 12, 2012 Rise Set
Actual Time 6:47 AM CST 4:36 PM CST
Civil Twilight 6:17 AM CST 5:07 PM CST
Nautical Twilight 5:42 AM CST 5:41 PM CST
Astronomical Twilight 5:09 AM CST 6:14 PM CST
Moon 5:11 AM CST (11/12) 3:42 PM CST (11/12)
Length of Visible Light 10h 49m
Length of Day
9h 48m
Waning Crescent, 2% of the Moon is Illuminated
Nov 12
Waning Crescent
Nov 13
New
Nov 20
First Quarter
Nov 28
Full
Dec 6
Last Quarter

Hourly Weather History & Observations

Time (CST) Temp. Windchill Dew Point Humidity Pressure Visibility Wind Dir Wind Speed Gust Speed Precip Events Conditions
12:15 AM 32.2 °F 21.8 °F 28.0 °F 85% 29.94 in 10.0 mi West 15.0 mph - N/A   Overcast
12:55 AM 31.6 °F 21.6 °F 25.2 °F 77% 29.94 in 10.0 mi West 13.8 mph 17.3 mph N/A   Overcast
1:15 AM 31.3 °F 19.9 °F 23.9 °F 74% 29.93 in 10.0 mi West 17.3 mph 23.0 mph N/A   Overcast
1:35 AM 31.1 °F 21.9 °F 23.0 °F 72% 29.94 in 10.0 mi WSW 11.5 mph - N/A   Overcast
1:55 AM 30.9 °F 20.7 °F 22.8 °F 72% 29.94 in 10.0 mi West 13.8 mph - N/A   Overcast
2:15 AM 30.9 °F 20.7 °F 23.0 °F 72% 29.96 in 10.0 mi WNW 13.8 mph 19.6 mph N/A   Overcast
2:35 AM 30.6 °F 23.1 °F 22.6 °F 72% 29.98 in 10.0 mi West 8.1 mph - N/A   Overcast
2:55 AM 30.2 °F 20.2 °F 21.7 °F 71% 29.97 in 10.0 mi West 12.7 mph - N/A   Overcast
3:15 AM 30.2 °F 18.9 °F 21.9 °F 71% 29.97 in 10.0 mi West 16.1 mph 21.9 mph N/A   Overcast
3:35 AM 29.8 °F 17.0 °F 21.2 °F 70% 29.97 in 10.0 mi West 20.7 mph 25.3 mph N/A   Overcast
3:55 AM 28.4 °F 17.5 °F 19.2 °F 69% 29.98 in 10.0 mi West 13.8 mph - N/A   Overcast
4:15 AM 28.0 °F 15.3 °F 19.4 °F 70% 29.98 in 10.0 mi West 18.4 mph 24.2 mph N/A   Mostly Cloudy
4:35 AM 27.5 °F 16.3 °F 18.3 °F 68% 29.99 in 10.0 mi West 13.8 mph 17.3 mph N/A   Mostly Cloudy
4:55 AM 27.1 °F 16.9 °F 18.5 °F 70% 29.99 in 10.0 mi West 11.5 mph - N/A   Scattered Clouds
5:15 AM 27.0 °F 19.5 °F 19.2 °F 73% 30.00 in 10.0 mi West 6.9 mph - N/A   Scattered Clouds
5:35 AM 28.0 °F 18.1 °F 19.6 °F 71% 30.00 in 10.0 mi WSW 11.5 mph 19.6 mph N/A   Overcast
5:55 AM 27.3 °F 14.8 °F 17.6 °F 67% 29.99 in 10.0 mi WSW 17.3 mph 23.0 mph N/A   Overcast
6:15 AM 26.8 °F 16.5 °F 17.8 °F 69% 30.01 in 10.0 mi West 11.5 mph - N/A   Mostly Cloudy
6:55 AM 26.2 °F 13.8 °F 17.1 °F 68% 30.02 in 10.0 mi West 16.1 mph - N/A   Overcast
7:15 AM 26.4 °F 16.6 °F 17.8 °F 70% 30.03 in 10.0 mi West 10.4 mph 18.4 mph N/A   Overcast
7:35 AM 26.1 °F 15.6 °F 17.2 °F 69% 30.03 in 10.0 mi WSW 11.5 mph - N/A   Overcast
7:55 AM 25.7 °F 15.7 °F 16.7 °F 69% 30.04 in 10.0 mi WSW 10.4 mph - N/A   Overcast
8:15 AM 25.7 °F 14.0 °F 16.2 °F 67% 30.04 in 10.0 mi WSW 13.8 mph 21.9 mph N/A   Overcast
8:35 AM 25.7 °F 13.5 °F 16.2 °F 67% 30.05 in 10.0 mi West 15.0 mph 19.6 mph N/A   Overcast
8:55 AM 26.1 °F 15.0 °F 15.3 °F 64% 30.05 in 10.0 mi West 12.7 mph 18.4 mph N/A   Overcast
9:15 AM 26.6 °F 15.2 °F 16.2 °F 65% 30.05 in 10.0 mi WSW 13.8 mph 18.4 mph N/A   Overcast
9:35 AM 27.0 °F 15.2 °F 16.0 °F 63% 30.06 in 10.0 mi West 15.0 mph 20.7 mph N/A   Overcast
9:55 AM 27.5 °F 15.4 °F 16.3 °F 63% 30.06 in 10.0 mi West 16.1 mph - N/A   Overcast
10:15 AM 29.1 °F 17.5 °F 16.5 °F 59% 30.06 in 10.0 mi West 16.1 mph 25.3 mph N/A   Mostly Cloudy
10:35 AM 28.9 °F 16.5 °F 16.5 °F 60% 30.06 in 10.0 mi WSW 18.4 mph 21.9 mph N/A   Overcast
10:55 AM 28.9 °F 16.9 °F 16.5 °F 60% 30.06 in 10.0 mi West 17.3 mph 23.0 mph N/A   Overcast
11:15 AM 29.3 °F 17.7 °F 17.4 °F 61% 30.05 in 10.0 mi WSW 16.1 mph - N/A   Overcast
11:35 AM 30.9 °F 19.4 °F 17.6 °F 58% 30.05 in 10.0 mi WSW 17.3 mph 24.2 mph N/A   Overcast
11:55 AM 30.9 °F 19.4 °F 17.8 °F 58% 30.04 in 10.0 mi WSW 17.3 mph 26.5 mph N/A   Overcast
12:15 PM 30.4 °F 18.7 °F 17.4 °F 59% 30.04 in 10.0 mi WSW 17.3 mph 24.2 mph N/A   Overcast
12:35 PM 30.0 °F 18.3 °F 16.9 °F 58% 30.05 in 10.0 mi WSW 17.3 mph 26.5 mph N/A   Overcast
12:55 PM 30.0 °F 18.7 °F 17.2 °F 59% 30.05 in 10.0 mi WSW 16.1 mph 27.6 mph N/A   Overcast
1:15 PM 29.8 °F 17.0 °F 17.8 °F 61% 30.06 in 10.0 mi West 20.7 mph 25.3 mph N/A   Overcast
1:35 PM 29.5 °F 15.8 °F 17.6 °F 61% 30.06 in 10.0 mi WSW 23.0 mph 29.9 mph N/A   Overcast
1:55 PM 29.3 °F 17.0 °F 18.0 °F 63% 30.07 in 10.0 mi West 18.4 mph 25.3 mph N/A   Overcast
2:15 PM 28.9 °F 16.5 °F 17.8 °F 63% 30.08 in 10.0 mi WSW 18.4 mph 23.0 mph N/A   Overcast
2:35 PM 28.9 °F 16.9 °F 17.4 °F 62% 30.08 in 10.0 mi WSW 17.3 mph 28.8 mph N/A   Overcast
2:55 PM 28.6 °F 19.3 °F 18.5 °F 66% 30.09 in 10.0 mi West 10.4 mph - N/A   Overcast
3:15 PM 28.8 °F 17.0 °F 17.8 °F 64% 30.10 in 10.0 mi West 16.1 mph 21.9 mph N/A   Overcast
3:35 PM 28.4 °F 17.5 °F 19.0 °F 68% 30.11 in 10.0 mi West 13.8 mph - N/A   Overcast
3:55 PM 28.4 °F 18.5 °F 19.0 °F 68% 30.12 in 10.0 mi West 11.5 mph - N/A   Overcast
4:15 PM 28.8 °F 17.5 °F 19.0 °F 67% 30.13 in 10.0 mi WSW 15.0 mph 21.9 mph N/A   Overcast
4:35 PM 28.8 °F 17.0 °F 18.5 °F 66% 30.13 in 10.0 mi West 16.1 mph 20.7 mph N/A   Overcast
4:55 PM 28.4 °F 18.5 °F 19.4 °F 69% 30.14 in 7.0 mi West 11.5 mph - N/A   Overcast
5:15 PM 28.0 °F 17.5 °F 18.5 °F 67% 30.16 in 10.0 mi West 12.7 mph - N/A   Mostly Cloudy
5:35 PM 28.2 °F 15.2 °F 18.5 °F 67% 30.16 in 10.0 mi West 19.6 mph 23.0 mph N/A   Overcast
5:55 PM 28.0 °F 16.5 °F 18.1 °F 66% 30.18 in 10.0 mi West 15.0 mph 23.0 mph N/A   Overcast
6:15 PM 26.6 °F 16.2 °F 19.8 °F 75% 30.19 in 10.0 mi West 11.5 mph 17.3 mph N/A   Scattered Clouds
6:55 PM 25.9 °F 16.0 °F 18.9 °F 75% 30.20 in 10.0 mi West 10.4 mph - N/A   Clear
7:15 PM 26.1 °F 17.6 °F 19.0 °F 75% 30.21 in 10.0 mi West 8.1 mph - N/A   Scattered Clouds
7:35 PM 27.1 °F 16.9 °F 18.9 °F 71% 30.22 in 10.0 mi West 11.5 mph - N/A   Overcast
7:55 PM 27.3 °F 17.1 °F 18.5 °F 69% 30.22 in 10.0 mi West 11.5 mph - N/A   Overcast
8:15 PM 27.3 °F 16.6 °F 15.8 °F 62% 30.23 in 10.0 mi West 12.7 mph 18.4 mph N/A   Overcast
8:35 PM 27.1 °F 16.4 °F 14.5 °F 59% 30.24 in 10.0 mi West 12.7 mph - N/A   Overcast
8:55 PM 27.0 °F 15.6 °F 14.5 °F 60% 30.25 in 10.0 mi West 13.8 mph 21.9 mph N/A   Overcast
9:15 PM 27.5 °F 17.4 °F 16.0 °F 62% 30.25 in 10.0 mi West 11.5 mph - N/A   Overcast
9:35 PM 27.5 °F 18.0 °F 15.8 °F 61% 30.26 in 10.0 mi West 10.4 mph - N/A   Overcast
9:55 PM 27.5 °F 15.9 °F 15.4 °F 61% 30.27 in 10.0 mi West 15.0 mph - N/A   Overcast
10:15 PM 27.9 °F 17.8 °F 14.9 °F 58% 30.27 in 10.0 mi West 11.5 mph - N/A   Overcast
10:35 PM 27.9 °F 16.3 °F 15.6 °F 60% 30.28 in 10.0 mi West 15.0 mph - N/A   Overcast
10:55 PM 28.0 °F 18.1 °F 15.3 °F 59% 30.29 in 10.0 mi West 11.5 mph - N/A   Overcast
11:15 PM 28.2 °F 17.7 °F 15.3 °F 58% 30.30 in 10.0 mi West 12.7 mph - N/A   Overcast
11:35 PM 27.5 °F 18.6 °F 15.6 °F 61% 30.30 in 10.0 mi WNW 9.2 mph - N/A   Overcast
11:55 PM 27.0 °F 16.7 °F 15.1 °F 61% 30.31 in 10.0 mi WNW 11.5 mph - N/A   Mostly Cloudy